K9NRG Weather Reports


Display with metric or nautical units.
time (UTC)temp
F
wind
direction
speed
MPH
gust
MPH
rain 1hr
in
rain 24hr
in
rain mn
in
humidity
%
barometer
mb
20260505082003 47 148 0.0 0.0 0.00 0.00 0.00 27 999.8
20260505081004 47 148 0.0 3.0 0.00 0.00 0.00 29 999.9
20260505080003 46 123 0.0 3.0 0.00 0.00 0.00 29 999.7
20260505074004 44 347 0.0 2.0 0.00 0.00 0.00 40 1001.0
20260505072004 43 0 0.0 3.0 0.00 0.00 0.00 50 1001.0
20260505070004 44 0 1.0 3.0 0.00 0.00 0.00 47 1000.8
20260505065003 46 246 1.0 3.0 0.00 0.00 0.00 42 999.8
20260505064003 46 191 0.0 6.0 0.00 0.00 0.00 38 999.7
20260505063003 45 130 0.0 0.0 0.00 0.00 0.00 42 1000.4
20260505061003 45 130 0.0 0.0 0.00 0.00 0.00 38 1000.1
20260505060004 46 130 0.0 0.0 0.00 0.00 0.00 37 999.7
20260505055004 46 130 0.0 0.0 0.00 0.00 0.00 37 1000.0
20260505054004 46 130 0.0 0.0 0.00 0.00 0.00 36 1000.2
20260505053004 46 130 0.0 0.0 0.00 0.00 0.00 36 1000.0
20260505052004 46 130 0.0 0.0 0.00 0.00 0.00 36 1000.0
20260505051004 47 130 0.0 0.0 0.00 0.00 0.00 35 1000.4
20260505041003 49 130 0.0 0.0 0.00 0.00 0.00 32 1000.6
20260505040004 49 130 0.0 0.0 0.00 0.00 0.00 32 1000.6
20260505035004 49 130 0.0 0.0 0.00 0.00 0.00 30 1001.7
20260505034003 49 130 0.0 0.0 0.00 0.00 0.00 31 1001.5
20260505033003 50 130 0.0 0.0 0.00 0.00 0.00 31 1000.9
20260505030004 51 130 0.0 0.0 0.00 0.00 0.00 30 1000.6
20260505024003 51 130 0.0 0.0 0.00 0.00 0.00 30 1001.1
20260505022004 52 130 0.0 0.0 0.00 0.00 0.00 28 1000.5
20260505021003 53 130 0.0 0.0 0.00 0.00 0.00 27 1000.4
20260505020004 54 130 0.0 0.0 0.00 0.00 0.00 27 999.8
20260505015004 55 130 0.0 0.0 0.00 0.00 0.00 25 1001.0
20260505014004 56 130 0.0 0.0 0.00 0.00 0.00 27 1000.8
20260505013004 56 130 0.0 1.0 0.00 0.00 0.00 26 1000.9
20260505012003 57 130 0.0 0.0 0.00 0.00 0.00 26 1000.2
20260505011004 57 130 0.0 1.0 0.00 0.00 0.00 24 1000.0
20260505005004 58 2 2.0 6.0 0.00 0.00 0.00 23 1000.9
20260505004004 58 355 0.0 7.0 0.00 0.00 0.00 24 1000.9
20260505003004 59 321 0.0 3.0 0.00 0.00 0.00 24 1000.9
20260505002003 59 354 1.0 5.0 0.00 0.00 0.00 23 1000.9
20260505001004 59 3 0.0 6.0 0.00 0.00 0.00 22 1001.1
20260505000004 59 318 1.0 5.0 0.00 0.00 0.00 23 1001.1
20260504235003 60 286 6.0 8.0 0.00 0.00 0.00 23 1000.6
20260504234003 60 199 3.0 12.0 0.00 0.00 0.00 24 1000.7
20260504233003 60 194 2.0 12.0 0.00 0.00 0.00 24 1000.8
20260504232003 61 189 1.0 9.0 0.00 0.00 0.00 23 1000.0
20260504231002 60 175 1.0 8.0 0.00 0.00 0.00 24 1000.6
20260504230002 60 215 2.0 8.0 0.00 0.00 0.00 24 1000.5
20260504225003 60 144 0.0 7.0 0.00 0.00 0.00 25 1000.3
20260504224003 60 195 1.0 10.0 0.00 0.00 0.00 24 1000.6
20260504223002 60 199 1.0 12.0 0.00 0.00 0.00 24 1000.6
20260504222002 61 208 1.0 6.0 0.00 0.00 0.00 24 1000.0
20260504221003 61 230 2.0 12.0 0.00 0.00 0.00 24 1000.1
20260504220003 61 209 2.0 8.0 0.00 0.00 0.00 25 1000.1
20260504215003 62 165 1.0 7.0 0.00 0.00 0.00 25 999.3
20260504214002 62 192 0.0 8.0 0.00 0.00 0.00 28 999.4
20260504213002 61 62 0.0 6.0 0.00 0.00 0.00 28 1000.2
20260504212003 60 46 1.0 12.0 0.00 0.00 0.00 28 1000.2
20260504210003 62 7 2.0 10.0 0.00 0.00 0.00 27 1000.1
20260504205002 61 250 2.0 8.0 0.00 0.00 0.00 27 1000.8
20260504204003 61 19 1.0 8.0 0.00 0.00 0.00 29 1000.7
20260504203002 61 290 2.0 10.0 0.00 0.00 0.00 32 1001.0
20260504201003 61 9 1.0 3.0 0.00 0.00 0.00 33 1001.0
20260504200003 60 359 2.0 10.0 0.00 0.00 0.00 34 1001.5
20260504195002 59 19 1.0 3.0 0.00 0.00 0.00 34 1001.0
20260504194002 59 170 5.0 6.0 0.00 0.00 0.00 34 1001.1
20260504193003 59 197 1.0 10.0 0.00 0.00 0.00 35 1001.2
20260504191002 60 319 0.0 6.0 0.00 0.00 0.00 37 1000.9
20260504190003 60 254 0.0 7.0 0.00 0.00 0.00 38 1001.0
20260504185003 59 315 0.0 5.0 0.00 0.00 0.00 37 1000.9
20260504184003 59 4 0.0 6.0 0.00 0.00 0.00 38 1001.1
20260504183003 59 187 1.0 10.0 0.00 0.00 0.00 37 1001.0
20260504182002 59 350 0.0 7.0 0.00 0.00 0.00 40 1001.1
20260504180003 58 114 0.0 6.0 0.00 0.00 0.00 42 1001.9
20260504175003 57 350 1.0 6.0 0.00 0.00 0.00 42 1001.8
20260504172003 56 184 1.0 3.0 0.00 0.00 0.00 43 1002.3
20260504171003 56 200 0.0 3.0 0.00 0.00 0.00 44 1002.3
20260504151003 50 97 0.0 2.0 0.00 0.00 0.00 64 1004.4
20260504141003 46 128 0.0 0.0 0.00 0.00 0.00 70 1005.0